When you browse on this site, cookies collect data to enhance your experience and personalize the content and advertising you see.
Visit our Privacy Policy to learn more. By continuing to use the site, you agree to this use of cookies and data.
  • en France
  • Liste des pays
  • À 7 jours
  • Température de l'eau
  • Carte météo
  • Widgets météo
  • user-avatar
    Se connecter

    Météo par heure à Reblinko

    Ce jour, 19 Février, Mercredi

    Heure Température Précipitation Vent Pression Humidité
    00:00 +1°C° 0 mm 8 m/s 754 mmHg 84%
    01:00 +2°C° 0 mm 6 m/s 753 mmHg 86%
    02:00 +2°C° 0.1 mm 7 m/s 753 mmHg 84%
    03:00 +2°C° 0.1 mm 7 m/s 752 mmHg 83%
    04:00 +3°C° 0.1 mm 7 m/s 752 mmHg 82%
    05:00 +3°C° 0 mm 7 m/s 752 mmHg 83%
    06:00 +2°C° 0 mm 7 m/s 751 mmHg 84%
    07:00 +2°C° 0 mm 7 m/s 751 mmHg 84%
    08:00 +2°C° 0 mm 7 m/s 751 mmHg 82%
    09:00 +2°C° 0 mm 8 m/s 750 mmHg 80%
    10:00 +2°C° 0 mm 8 m/s 750 mmHg 77%
    11:00 +2°C° 0.2 mm 8 m/s 750 mmHg 82%
    12:00 +3°C° 0.2 mm 7 m/s 750 mmHg 86%
    13:00 +2°C° 0.2 mm 7 m/s 750 mmHg 90%
    14:00 +2°C° 0.5 mm 7 m/s 750 mmHg 88%
    15:00 +3°C° 0.5 mm 6 m/s 750 mmHg 86%
    16:00 +3°C° 0.5 mm 6 m/s 750 mmHg 84%
    17:00 +2°C° 0 mm 6 m/s 751 mmHg 85%
    18:00 +2°C° 0 mm 5 m/s 751 mmHg 86%
    19:00 +1°C° 0 mm 5 m/s 751 mmHg 87%
    20:00 +2°C° 0.1 mm 5 m/s 752 mmHg 88%
    21:00 +2°C° 0.1 mm 5 m/s 752 mmHg 88%
    22:00 +3°C° 0.1 mm 4 m/s 753 mmHg 88%
    23:00 +1°C° 0 mm 4 m/s 753 mmHg 90%

    Demain, 20 Février, Jeudi

    Heure Température Précipitation Vent Pression Humidité
    00:00 +1°C° 0 mm 4 m/s 754 mmHg 91%
    01:00 +1°C° 0 mm 4 m/s 754 mmHg 92%
    02:00 +1°C° 0 mm 4 m/s 755 mmHg 92%
    03:00 +1°C° 0 mm 4 m/s 755 mmHg 92%
    04:00 +1°C° 0 mm 4 m/s 755 mmHg 92%
    05:00 +1°C° 0 mm 4 m/s 756 mmHg 92%
    06:00 +1°C° 0 mm 4 m/s 756 mmHg 92%
    07:00 +2°C° 0 mm 3 m/s 757 mmHg 92%
    08:00 +1°C° 0 mm 4 m/s 757 mmHg 88%
    09:00 +3°C° 0 mm 4 m/s 757 mmHg 85%
    10:00 +4°C° 0 mm 4 m/s 758 mmHg 81%
    11:00 +4°C° 0 mm 4 m/s 758 mmHg 77%
    12:00 +3°C° 0 mm 5 m/s 758 mmHg 74%
    13:00 +5°C° 0 mm 5 m/s 758 mmHg 70%
    14:00 +5°C° 0 mm 5 m/s 757 mmHg 69%
    15:00 +4°C° 0 mm 6 m/s 756 mmHg 67%
    16:00 +3°C° 0 mm 6 m/s 756 mmHg 66%
    17:00 +3°C° 0 mm 6 m/s 755 mmHg 69%
    18:00 +3°C° 0 mm 7 m/s 755 mmHg 71%
    19:00 +2°C° 0 mm 7 m/s 754 mmHg 74%
    20:00 +3°C° 0.1 mm 7 m/s 753 mmHg 77%
    21:00 +2°C° 0.1 mm 8 m/s 753 mmHg 80%
    22:00 +2°C° 0.1 mm 8 m/s 752 mmHg 83%
    23:00 +4°C° 0.2 mm 8 m/s 751 mmHg 83%

    Après-demain, 21 Février, Vendredi

    Heure Température Précipitation Vent Pression Humidité
    00:00 +4°C° 0.2 mm 8 m/s 750 mmHg 83%
    01:00 +4°C° 0.2 mm 8 m/s 749 mmHg 83%
    02:00 +3°C° 1.2 mm 9 m/s 748 mmHg 86%
    03:00 +2°C° 1.2 mm 9 m/s 748 mmHg 89%
    04:00 +2°C° 1.2 mm 10 m/s 748 mmHg 92%
    05:00 +2°C° 0.7 mm 10 m/s 749 mmHg 86%
    06:00 +1°C° 0.7 mm 9 m/s 750 mmHg 79%
    07:00 +1°C° 0.7 mm 9 m/s 751 mmHg 73%
    14:00 +2°C° 0.1 mm 10 m/s 756 mmHg 72%
    15:00 +2°C° 0.1 mm 10 m/s 757 mmHg 71%
    16:00 +2°C° 0.1 mm 9 m/s 757 mmHg 71%
    17:00 +2°C° 0 mm 9 m/s 758 mmHg 74%
    18:00 +2°C° 0 mm 8 m/s 759 mmHg 77%
    19:00 +2°C° 0 mm 8 m/s 759 mmHg 80%
    20:00 +1°C° 0 mm 8 m/s 759 mmHg 80%
    21:00 +1°C° 0 mm 8 m/s 759 mmHg 80%
    22:00 +1°C° 0 mm 8 m/s 759 mmHg 80%
    23:00 +1°C° 0 mm 8 m/s 759 mmHg 80%

    22 Février, Samedi

    Heure Température Précipitation Vent Pression Humidité
    00:00 +1°C° 0 mm 8 m/s 759 mmHg 81%
    01:00 +1°C° 0 mm 8 m/s 759 mmHg 82%
    02:00 +1°C° 0 mm 8 m/s 758 mmHg 82%
    03:00 +1°C° 0 mm 8 m/s 758 mmHg 83%
    04:00 +1°C° 0 mm 8 m/s 757 mmHg 83%
    05:00 +1°C° 0.1 mm 9 m/s 757 mmHg 83%
    06:00 +1°C° 0.1 mm 9 m/s 756 mmHg 83%
    07:00 +2°C° 0.1 mm 9 m/s 756 mmHg 83%
    08:00 +2°C° 0.1 mm 9 m/s 755 mmHg 82%
    09:00 +2°C° 0.1 mm 10 m/s 754 mmHg 81%
    10:00 +2°C° 0.1 mm 10 m/s 754 mmHg 80%
    11:00 +2°C° 0.2 mm 10 m/s 753 mmHg 80%
    12:00 +2°C° 0.2 mm 11 m/s 752 mmHg 81%
    13:00 +2°C° 0.2 mm 11 m/s 752 mmHg 81%
    14:00 +3°C° 0 mm 12 m/s 751 mmHg 79%
    15:00 +3°C° 0 mm 12 m/s 750 mmHg 77%
    16:00 +4°C° 0 mm 13 m/s 749 mmHg 74%
    17:00 +4°C° 0.8 mm 12 m/s 749 mmHg 76%
    18:00 +4°C° 0.8 mm 12 m/s 749 mmHg 77%
    19:00 +3°C° 0.8 mm 12 m/s 750 mmHg 78%
    20:00 +3°C° 0.1 mm 11 m/s 750 mmHg 77%
    21:00 +3°C° 0.1 mm 11 m/s 750 mmHg 76%
    22:00 +2°C° 0.1 mm 11 m/s 751 mmHg 75%
    23:00 +2°C° 0.1 mm 10 m/s 751 mmHg 76%

    23 Février, Dimanche

    Heure Température Précipitation Vent Pression Humidité
    00:00 +2°C° 0.1 mm 10 m/s 751 mmHg 76%
    01:00 +2°C° 0.1 mm 10 m/s 751 mmHg 76%
    02:00 +2°C° 0.1 mm 10 m/s 751 mmHg 76%
    03:00 +2°C° 0.1 mm 10 m/s 751 mmHg 76%
    04:00 +2°C° 0.1 mm 10 m/s 751 mmHg 76%
    05:00 +1°C° 0.1 mm 10 m/s 751 mmHg 76%
    06:00 +1°C° 0.1 mm 10 m/s 751 mmHg 75%
    07:00 +1°C° 0.1 mm 9 m/s 752 mmHg 75%
    08:00 +1°C° 0.1 mm 10 m/s 752 mmHg 73%
    09:00 +2°C° 0.1 mm 10 m/s 752 mmHg 72%
    10:00 +2°C° 0.1 mm 10 m/s 752 mmHg 70%
    11:00 +2°C° 0.1 mm 10 m/s 751 mmHg 70%
    12:00 +2°C° 0.1 mm 10 m/s 751 mmHg 70%
    13:00 +2°C° 0.1 mm 10 m/s 751 mmHg 70%
    14:00 +2°C° 0.1 mm 9 m/s 750 mmHg 71%
    15:00 +2°C° 0.1 mm 8 m/s 749 mmHg 73%
    16:00 +2°C° 0.1 mm 8 m/s 748 mmHg 75%
    17:00 +3°C° 0.1 mm 7 m/s 748 mmHg 79%
    18:00 +2°C° 0.1 mm 6 m/s 747 mmHg 82%
    19:00 +2°C° 0.1 mm 5 m/s 746 mmHg 86%
    20:00 +1°C° 0.1 mm 5 m/s 746 mmHg 87%
    21:00 +1°C° 0.1 mm 5 m/s 745 mmHg 87%
    22:00 +1°C° 0.1 mm 5 m/s 745 mmHg 88%
    23:00 +1°C° 0.3 mm 6 m/s 745 mmHg 85%

    24 Février, Lundi

    Heure Température Précipitation Vent Pression Humidité
    00:00 0°C° 0.3 mm 7 m/s 746 mmHg 83%
    01:00 0°C° 0.3 mm 8 m/s 746 mmHg 81%
    02:00 0°C° 0.4 mm 9 m/s 747 mmHg 81%
    03:00 0°C° 0.4 mm 10 m/s 747 mmHg 81%
    04:00 -1°C° 0.4 mm 11 m/s 748 mmHg 81%
    05:00 -1°C° 0 mm 11 m/s 749 mmHg 78%
    06:00 +1°C° 0 mm 10 m/s 750 mmHg 75%
    07:00 +1°C° 0 mm 10 m/s 752 mmHg 72%
    08:00 +1°C° 0 mm 9 m/s 753 mmHg 69%
    09:00 +2°C° 0 mm 9 m/s 754 mmHg 67%
    10:00 +2°C° 0 mm 8 m/s 755 mmHg 65%
    11:00 +2°C° 0 mm 8 m/s 756 mmHg 62%
    12:00 +4°C° 0 mm 8 m/s 757 mmHg 60%
    13:00 +4°C° 0 mm 7 m/s 758 mmHg 57%
    14:00 +4°C° 0 mm 7 m/s 759 mmHg 60%
    15:00 +3°C° 0 mm 7 m/s 759 mmHg 63%
    16:00 +3°C° 0 mm 7 m/s 759 mmHg 65%
    17:00 +2°C° 0 mm 6 m/s 759 mmHg 69%
    18:00 +2°C° 0 mm 6 m/s 759 mmHg 73%
    19:00 +1°C° 0 mm 5 m/s 760 mmHg 76%
    20:00 +1°C° 0 mm 5 m/s 759 mmHg 77%
    21:00 +1°C° 0 mm 5 m/s 759 mmHg 77%
    22:00 0°C° 0 mm 5 m/s 759 mmHg 77%
    23:00 0°C° 0 mm 5 m/s 758 mmHg 75%
    Voir plus